Location: New Mesquite
(33.1168°N, 96.4336°W)
Time: 10:25:40
(UTC+00:00)

OPS-SAT - Pass Details

Date: 13 October 2022
Orbit: 486 x 504 km, 97.5° (Epoch: 01 December)

Event Time Altitude Azimuth Distance (km) Brightness Sun altitude
Rises 11:51:15 0° 168° (SSE) 2,569 ? -8.6°
Reaches altitude 10° 11:53:18 10° 168° (SSE) 1,694 ? -8.2°
Maximum altitude 11:56:57 89° 244° (WSW) 507 ? -7.4°
Drops below altitude 10° 12:00:40 10° 348° (NNW) 1,720 ? -6.7°
Sets 12:02:46 0° 349° (N) 2,612 ? -6.2°
